Regional Weather Roundup
Issued by NWS

Home | Current Version | Previous Version | Text Only | Print | Product List | Glossary On
Versions: 1 2 3 4 5 6 7 8 9 10 11 12 13 14 15 16 17 18 19 20 21 22 23 24 25 26 27 28 29 30 31 32 33 34 35 36 37 38 39 40 41 42 43 44 45 46 47 48 49 50
000
ASUS44 KFWD 040810
RWRTX
NORTH TEXAS HOURLY WEATHER ROUNDUP
NATIONAL WEATHER SERVICE FORT WORTH TX
300 AM CDT FRI SEP 04 2015

NOTE: "FAIR" INDICATES FEW OR NO CLOUDS BELOW 12,000 FEET WITH NO
SIGNIFICANT WEATHER AND/OR OBSTRUCTIONS TO VISIBILITY.

TXZ118-119-040900-
DALLAS/FORT WORTH METROPLEX

CITY           SKY/WX    TMP DP  RH WIND       PRES   REMARKS
DFW AIRPORT    CLEAR     82  68  62 SE8       29.89S
DALLAS LOVE    PTCLDY    83  69  62 SE14      29.90R
FTW MEACHAM    CLEAR     82  68  62 SE8       29.89S
DAL-EXECUTIVE  CLEAR     78  69  73 S6        29.90S
FTW-ALLIANCE   CLEAR     79  68  69 SE7       29.89S
FTW-NAS-JRB    CLEAR     81  69  67 S9        29.90S
FTW-SPINKS     CLEAR     77  68  73 S6        29.92S
ARLINGTON      CLEAR     81  68  64 SE8       29.90S
GRAND PRAIRIE  CLEAR     80  70  71 SE6       29.91S
ADDISON        CLEAR     82  71  69 SE9       29.91F
MESQUITE       CLEAR     77  69  77 SE6       29.91S
LANCASTER      CLEAR     78  67  69 S3        29.92R
$$

TXZ091>094-102>105-117-120-121-131>134-040900-
NORTH CENTRAL TEXAS

CITY           SKY/WX    TMP DP  RH WIND       PRES   REMARKS
SHRMAN/DENISON CLEAR     80  70  72 SE8       29.91F
GAINESVILLE    CLEAR     75  67  75 CALM      29.92F
BOWIE          CLEAR     72  65  79 CALM      29.91S
BRIDGEPORT     CLEAR     74  67  76 SE5       29.91F
DECATUR        CLEAR     76  65  67 SE6       29.91F
DENTON         CLEAR     75  68  78 SE3       29.90S
MCKINNEY       CLEAR     77  69  76 SE3       29.90S
GREENVILLE     CLEAR     75  68  78 SE3       29.91S
ROCKWALL       CLEAR     78  70  74 SE5       29.90R
TERRELL        CLEAR     78  70  76 S6        29.91S
WAXAHACHIE     CLEAR     77  69  77 S3        29.92S
CLEBURNE       CLEAR     79  70  73 S8        29.93S
GRANBURY       CLEAR     79  67  67 SE6       29.91S
$$

TXZ083>090-098>101-113>116-127>130-139>142-154-155-040900-
WESTERN NORTH TEXAS

CITY           SKY/WX    TMP DP  RH WIND       PRES   REMARKS
WICHITA FALLS  CLEAR     73  65  75 SE9       29.88F
WF-KICKAPOO    CLEAR     77  65  66 SE8       29.90S
VERNON         CLEAR     76  58  53 SE7       29.90S
ABILENE        CLEAR     76  63  64 S10       29.92S
ABILENE-DYESS  CLEAR     76  64  66 S9        29.90F
BRECKENRIDGE   CLEAR     77  64  62 S6        29.90S
GRAHAM         CLEAR     77  67  72 SE5       29.89S
MINERAL WELLS  CLEAR     74  67  78 SE8       29.88F
STEPHENVILLE   CLEAR     74  65  74 CALM      29.95S
COMANCHE       CLEAR     75  68  77 S8        29.93S
COLEMAN        CLEAR     76  65  67 S5        29.93S
BRADY          CLEAR     75  66  73 SE6       29.94S
$$

TXZ143>147-156>162-174-175-040900-
CENTRAL TEXAS

CITY           SKY/WX    TMP DP  RH WIND       PRES   REMARKS
WACO           CLEAR     79  71  76 S10       29.90F
WACO-MCGREGOR  CLEAR     77  71  82 S6        29.91S
HILLSBORO      CLEAR     78  67  69 SE8       29.92R
CORSICANA      FAIR      77  70  79 S7        29.92S
MEXIA          CLEAR     74  69  85 E7        29.91S
HEARNE         CLEAR     75  72  90 CALM      29.92S
CAMERON        CLEAR     76  72  86 CALM      29.91S
TEMPLE         CLEAR     75  66  73 SE5       29.92S
KILLEEN        CLEAR     75  71  86 S5        29.92R
KILLEEN-SKYLRK CLEAR     77  66  69 S7        29.91S
FORT HOOD      CLEAR     76  71  87 S7        29.91R
GATESVILLE     CLEAR     75  70  83 SE3       29.94S
HAMILTON       CLEAR     75  67  77 S7        29.94S
$$

TXZ095>097-106>112-122>126-135>138-148>153-164>167-040900-
EAST TEXAS

CITY           SKY/WX    TMP DP  RH WIND       PRES   REMARKS
PARIS          CLEAR     73  61  64 SE7       29.92S
SULPHUR SPRNGS CLEAR     79  68  69 S6        29.93F
MOUNT PLEASANT CLEAR     73  69  86 CALM      29.92F
GILMER         CLEAR     73  71  92 CALM      29.91F
MINEOLA        CLEAR     73  72  94 CALM      29.92S
TYLER          CLEAR     76  70  82 S7        29.92R
LONGVIEW       CLEAR     76  71  85 S3        29.91S
MARSHALL       CLEAR     76  73  90 CALM      29.93F
ATHENS         CLEAR     72  70  94 CALM      29.91S
PALESTINE      CLEAR     76  73  88 CALM      29.93R
JACKSONVILLE   CLEAR     76  71  85 S5        29.94S
HENDERSON      CLEAR     73  71  91 CALM      29.93S
CENTER         FAIR      74  72  91 CALM      29.92S
NACOGDOCHES    CLEAR     73  70  88 CALM      29.92R
LUFKIN         CLEAR     72  70  93 CALM      29.91S
$$

SUPPLEMENTAL OBSERVATIONS (CENTRAL)

CITY           SKY/WX    TMP DP  RH WIND       PRES   REMARKS
CADDO GRASSLND   N/A     75  64  69 S3          N/A
PAT MAYSE LAKE   N/A     79  66  65 SE8         N/A
GREENVILLE       N/A     77  66  69 SE3         N/A
MCGREGOR         N/A     75  68  78 S5          N/A
TEMPLE           N/A     75  70  83 SE5         N/A
$$

SUPPLEMENTAL OBSERVATIONS (WEST)

CITY           SKY/WX    TMP DP  RH WIND       PRES   REMARKS
MILLERS CREEK    N/A     77  64  65 SE8         N/A
POSSUM KINGDOM   N/A     77  63  61 SE6         N/A
LBJ GRASSLAND    N/A     79  68  69 SE5         N/A
GRANBURY         N/A     79  66  65 SE7         N/A
HAMBY            N/A     77  63  61 S8          N/A
IVIE RESERVOIR   N/A    N/A N/A N/A SE5         N/A
COLORADO BEND    N/A     75  66  73 SW7         N/A
$$

SUPPLEMENTAL OBSERVATIONS (EAST)

CITY           SKY/WX    TMP DP  RH WIND       PRES   REMARKS
TEXARKANA        N/A     70  68  94 CALM        N/A
LUFKIN           N/A     73  70  88 MISG        N/A
N SABINE NF      N/A     72  66  83 MISG        N/A
$$

SUPPLEMENTAL OBSERVATIONS ARE A COLLECTION OF AUTOMATED INSTRUMENTS
THAT ARE MAINTAINED BY A VARIETY OF FEDERAL AND STATE AGENCIES.
CERTAIN ELEMENTS...SUCH AS HUMIDITY VALUES AND SUSTAINED WIND
SPEEDS...MAY BE APPROXIMATED.




USA.gov is the U.S. government's official web portal to all federal, state and local government web resources and services.